sat.trackr.live / text

‹ back to catalog

STARLINK-34554

NORAD 64687 · 2025-139Z

PAYLOAD ACTIVE UNKNOWN

§ Identity

Operator
Country
US
Launch date
2025-06-28
Launch site
AFETR
Launch vehicle
Mass (kg)
RCS (m²)

Purposes: comms

External: N2YO · Heavens-Above · Gunter

§ Orbital elements

Epoch: 2026-05-25T03:22:53.976000Z

Period
93.85 min
Inclination
53.1596°
Eccentricity
0.0001155
Mean motion
15.34411854 rev/d
Perigee alt
461.9 km
Apogee alt
463.5 km
Semi-major
6,840.8 km
B*
5.5427e-4
RAAN
130.8980°
Arg perigee
122.8068°
Mean anomaly
237.3046°
Rev number
5,200

§ Raw data

STARLINK-345541 64687U 25139Z   26145.14090250  .00018404  00000+0  55427-3 0  99922 64687  53.1596 130.8980 0001155 122.8068 237.3046 15.34411854 52008

JSON: /api/v1/satellites/64687 · /tle

For live sub-satellite position, see the globe view (requires WebGL).

§ Visibility from observer

Set your observer location to see the next 7 days of passes ≥ 10°. The values pass through the URL so the page stays shareable.

No JS? Fill the form by hand. The geolocation button needs JavaScript.